Location: Huesca
(42.1318°N, 0.4078°W)
Time: 20:55:34
(UTC+02:00)

YUBILEINY - Pass Details

Date: 24 April 2026
Orbit: 1477 x 1509 km, 82.5° (Epoch: 17 May)

Event Time Altitude Azimuth Distance (km) Brightness Sun altitude
Rises 02:58:49 0° 340° (NNW) 4,612 ? -33.4°
Reaches altitude 10° 03:02:32 10° 326° (NW) 3,631 ? -33.2°
Maximum altitude 03:08:32 21° 281° (WNW) 2,840 ? -32.8°
Enters shadow 03:09:12 21° 275° (W) 2,851 ? -32.8°
